Regional Weather Roundup
Issued by NWS Wakefield, VA

Home | Current Version | Previous Version | Text Only | Print | Product List | Glossary Off
Versions: 1 2 3 4 5 6 7 8 9 10 11 12 13 14 15 16 17 18 19 20 21 22 23 24 25 26 27

000
ASUS41 KAKQ 171715
RWRAKQ

REGIONAL WEATHER ROUNDUP
NATIONAL WEATHER SERVICE WAKEFIELD VA
1200 PM EST TUE JAN 17 2017

Note: "fair" indicates few or no clouds below 12,000 feet with no
significant weather and/or obstructions to visibility. * = Denotes
station may not report precipitation (e.g., rain,snow,etc.),
thunder or fog.

VAZ042-051-052>054-056-171800-
NORTHERN VIRGINIA

CITY           SKY/WX    TMP DP  RH WIND       PRES   REMARKS
WASH NATIONAL  CLOUDY    47  45  93 S9        30.11F
DULLES         CLOUDY    44  41  89 S7        30.10F
FORT BELVOIR   CLOUDY    46  43  87 S6        30.10F
QUANTICO       CLOUDY    45  44  97 SW6       30.13F
FREDERICKSBRG* CLOUDY    48  48 100 SW3       30.11F
STAFFORD*      CLOUDY    46  46 100 CALM      30.15F
WARRENTON      CLOUDY    46  42  86 S6        30.08F
CULPEPER*      DRIZZLE   46  44  93 S5        30.11F
MANASSAS*      CLOUDY   N/A N/A N/A MISG        N/A
LEESBURG*      CLOUDY    45  45 100 S5        30.09F FOG
WINCHESTER     RAIN      43  41  93 CALM      30.05F
FRONT ROYAL*   CLOUDY    46  46 100 CALM      30.04F
LURAY*         LGT RAIN  52  52 100 CALM      30.04F
$$

VAZ048-049-060>072-079>083-171800-
CENTRAL AND SOUTH CENTRAL VIRGINIA

CITY           SKY/WX    TMP DP  RH WIND       PRES   REMARKS
RICHMOND       CLOUDY    54  49  83 S10       30.14F
CHESTERFIELD*  PTSUNNY   55  37  50 S8        30.15F
PETERSBURG*    CLOUDY    55  48  76 S8        30.16F
HANOVER        CLOUDY    53  47  79 S10       30.13F
TAPPAHANNOCK*  CLOUDY    52  50  93 S7        30.13F
QUINTON*       PTSUNNY   53  49  87 S5        30.14F
CHARLOTTSVILLE LGT RAIN  46  44  93 S6        30.09F FOG
GORDONSVILLE*  CLOUDY    46  45  97 SW3       30.10F FOG
ORANGE*        DRIZZLE   46  46 100 CALM      30.13F
LOUISA*        CLOUDY    52  48  87 SW6       30.10F
BUMPASS*       CLOUDY    49  49  99 SW6       30.12F
FARMVILLE*     LGT RAIN  54  52  93 SW8       30.13F
CREWE*         CLOUDY    56  55  97 SW9G17    30.14F
FORT PICKETT*  CLOUDY    56  49  78 SW10G24   30.15F
CHASE CITY*    CLOUDY    54  53  95 CALM      30.17F
CLARKSVILLE*   CLOUDY    55  52  88 SW10      30.17F
SOUTH HILL*    CLOUDY    54  51  90 S6        30.23F
LAWRENCEVILLE* CLOUDY    53  50  90 SW9       30.18F
EMPORIA*       CLOUDY    52  48  87 S7        30.21F FOG
$$

VAZ088>098-171800-
SOUTHEAST VIRGINIA

CITY           SKY/WX    TMP DP  RH WIND       PRES   REMARKS
NORFOLK        CLOUDY    54  47  77 SW13      30.17F
VIRGINIA BEACH CLOUDY    53  47  79 SW8       30.17F
NORFOLK NAVAL  NOT AVBL
WEST POINT*    CLOUDY    54  48  81 S6        30.16F
SALUDA*        CLOUDY    52  49  90 S9        30.15F
NEWPORT NEWS   CLOUDY    54  49  83 SW12      30.17F
LANGLEY AFB    CLOUDY    53  48  83 S12       30.16F
FORT EUSTIS    CLOUDY    54  47  78 S8        30.14F
WILLIAMSBURG*  MOSUNNY   55  50  82 S9        30.17F
HR EXEC AP*    CLOUDY    54  46  76 SW10      30.17F
FRANKLIN*      CLOUDY    53  48  83 SW7       30.19F
US460-WAKEFLD  CLOUDY    54  49  83 S9G17     30.17F
$$

VAZ020-022-025-037-045-171800-
WEST CENTRAL AND SOUTHWEST VIRGINIA

CITY           SKY/WX    TMP DP  RH WIND       PRES   REMARKS
STAUNTON*      CLOUDY    52  50  94 CALM      30.08F
WAYNESBORO*    CLOUDY    55  52  91 E3        30.07F
HOT SPRINGS VA CLOUDY    54  50  87 SW17G28   30.06F
LYNCHBURG      LGT RAIN  46  46 100 S7        30.13F FOG
DANVILLE       LGT RAIN  52  52 100 SW5       30.17F
SOUTH BOSTON*  CLOUDY    56  54  94 SW5       30.18F
MARTINSVILLE   CLOUDY    49  48  96 CALM      30.19F FOG
ROANOKE        CLOUDY    47  46  97 CALM      30.14F FOG
BLACKSBURG     CLOUDY    51  51 100 NW3       30.15F FOG
DUBLIN*        CLOUDY    51  51 100 CALM      30.13F
MARION*        CLOUDY    51  50  96 CALM      30.14F
HILLSVILLE*    CLOUDY    51  50  97 S5        30.12F
RICHLANDS*     CLOUDY   N/A N/A N/A SW7       30.11F
WISE*          LGT RAIN  55  55 100 SW20G26   30.10F
ABINGDON*      CLOUDY    56  54  94 CALM      30.11F
$$

MDZ021>025-VAZ099-100-171800-
SOUTHERN MARYLAND AND THE DELMARVA PENINSULA

CITY           SKY/WX    TMP DP  RH WIND       PRES   REMARKS
PATUXENT RIVER LGT RAIN  43  42  97 SE12      30.12F FOG
BAY BRIDGE APT CLOUDY    43  43 100 SE9       30.11F FOG
LEONARDTOWN    CLOUDY    46  43  87 S5        30.12F
DOVER          LGT RAIN  43  43 100 SE6       30.13F FOG
GEORGETOWN     LGT RAIN  45  43  93 S6        30.17F FOG
EASTON         LGT RAIN  45  43  93 S10       30.15F FOG
CAMBRIDGE      CLOUDY    43  43 100 S9        30.12F
SALISBURY      LGT RAIN  45  44  97 SE3       30.15F FOG
OCEAN CITY     LGT RAIN  44  43  96 SW6       30.18F
WALLOPS ISLAND CLOUDY    46  43  89 S10       30.17F
ACCOMACK*      CLOUDY    49  45  87 S5        30.17F
$$

NCZ012>017-030>032-171800-
NORTH CENTRAL AND EASTERN NORTH CAROLINA

CITY           SKY/WX    TMP DP  RH WIND       PRES   REMARKS
ROANOKE RAPIDS CLOUDY    55  52  88 SW13      30.19F
RALEIGH        CLOUDY    56  51  84 SW13      30.22F
ELIZABETH CITY MOSUNNY   55  49  80 S7        30.20F
AHOSKIE*         N/A     55  50  85 SW3       30.20F
EDENTON*       CLOUDY    54  49  85 CALM      30.23F
CURRITUCK*     MOSUNNY   58  50  75 SW9       30.20F
KILL DEVIL HLS NOT AVBL
MANTEO         PTSUNNY   54  51  89 CALM      30.21F
CAPE HATTERAS  PTSUNNY   57  47  69 CALM      30.23F
TARBORO*       NOT AVBL
GOLDSBORO      NOT AVBL
WASHINGTON     CLOUDY    58  48  70 SW3       30.23F
GREENVILLE     CLOUDY    55  50  82 SW7       30.24F
NEW BERN       CLOUDY    61  49  64 VRB3      30.24F
WILMINGTON     PTSUNNY   67  57  70 W5        30.24F
$$

VAZ048-171800-
ELSEWHERE

CITY           SKY/WX    TMP DP  RH WIND       PRES   REMARKS
HARRISBURG PA  CLOUDY    40  37  89 E8        30.09F FOG
BALTIMORE      LGT RAIN  43  43 100 SE6       30.09F FOG
ANNAPOLIS      CLOUDY    45  42  89 SE7       30.10F FOG
ANDREWS AFB    CLOUDY    45  44  94 S10       30.08F
PHILADELPHIA   CLOUDY    42  37  82 CALM      30.16F
HENDERSON NC   CLOUDY    55  48  78 SW12      30.19F
GREENSBORO     CLOUDY    57  53  86 SW14G23   30.17F
ROCKY MOUNT    CLOUDY    55  53  93 SW12      30.22F
$$

VAZ100-171800-
MARINE

STATION/POSITION TIME  TEMP    WIND        PRES    WAVE   SWELL
                       AIR SEA DIR/SP/G            HT/PER HT/PER
                 (UTC) (F)     (DEG/KT/KT) (MB)    (FT/S) (FT/S)
CAPE MAY NJ      1648   42 40  150/  7/  8 1021.6F
LEWES DE         1648   45 41  210/  3/  4 1021.8F
OCEAN-CITY-INLET 1648   43 42  220/  8/  9 1022.4F
WACHAPREAGUE VA  1648   46 44  210/  9/ 12 1021.5F
THOMAS POINT MD  1700   41 38  160/ 13/ 14   N/A
GOOSES REEF MD   1650   41     170/ 12/ 14 1020.6F
COVE POINT MD    1648   40     180/ 15/ 16 1020.4F
SOLOMONS ISLAND  1648   43 40  130/ 10/ 10   N/A
BISHOPS HEAD MD  1648   41 42  140/  7/  8 1021.0F
PINEY POINT MD   1648          140/  7/  8   N/A
POTOMAC MD       1650   41     160/  8/ 10 1019.9F
CAMBRIDGE MD     1648   44 38  150/  5/  7 1019.8F
LEWISETTA VA     1648   47 42  180/  5/  5 1020.1F
RAPPAHANNOCK LGT 1648          170/ 15/ 16 1021.9F
STINGRAY PT      1650   42     170/  8/ 10 1021.8F
YORK RVR RNG VA  1648   47     210/ 10/ 11 1020.8F
YORKTOWN VA      1648   53 42  220/ 12/ 15 1021.1F
JAMESTOWN VA     1650   52     210/  8/ 12   N/A
DOMINION TERM VA 1648   48     210/  6/  7 1021.9F
KIPTOPEKE VA     1648      42  180/  8/  9   N/A
CHES BAY BRIDGE  1648   49 42  200/  7/  9 1021.7F
CAPE HENRY VA    1648   52     200/  6/  9   N/A
WILLOUBY STN VA  1648   51     210/ 10/ 10 1022.5F
S CRANEY ISL VA  1648   51     200/  6/  9 1021.7F
CAPE HENRY BUOY  1642      47                N/A     2/10
OFFSHORE WE BUOY 1651      49                N/A     2/10
64NM E OF VA BCH 1650   53 56  190/  4/  6 1022.8F   2/ 9   2/ 9
DUCK PIER NC     1648   51 44  150/  6/  7 1022.4F
44100 DUCK FRF   1635      47                N/A     2/ 9
44056 DUCK FRF   1630      45                N/A     2/ 8
OREGON INLET NC  1642   52 49   70/  4/  5 1023.5F
HATTERAS NC      1648   49 52  350/  2/  3 1023.5F
DIAMOND SHLS NC  1650   58 73  360/  8/ 10 1023.7F   3/ 8   2/ 8
CAPE LOOKOUT NC  1600   59      30/  4/  6 1024.1F
$$




USA.gov is the U.S. government's official web portal to all federal, state and local government web resources and services.